|
Cosmos 1206 Rocket - Orbit
|
Simi Valley;
03:10:33
| Home | Info | Passes |
|
View from above orbital plane
|
View from above satellite
|
Ground track
|
The orbit data is extracted from the following two-line orbital elements,
1 11933U 80069B 13170.94888198 .00016974 00000-0 24275-3 0 66
2 11933 081.2109 078.1570 0014304 148.4725 211.7908 15.56062597806470
| Epoch (UTC): | 19 June 2013 22:46:23 |
| Eccentricity: | 0.0014304 |
| inclination: | 81.2109° |
| perigee height: | 389 km |
| apogee height: | 409 km |
| right ascension of ascending node: | 78.1570° |
| argument of perigee: | 148.4725° |
| revolutions per day: | 15.56062597 |
| mean anomaly at epoch: | 211.7908° |
| orbit number at epoch: | 80647 |
The dashed part of the orbit path shows where the satellite is in the earth's shadow,
|
|